This is the latest recevied weather packets stored in our database for station/object WX4LTG. If no packets are shown the sender has not sent any weather packets the latest 10 day(s).
| Time | Temp. | Humidity | Pressure | Rain* | Wind** | Luminosity | Snow |
|---|---|---|---|---|---|---|---|
| 1777760491 | 33.33° C | 17% | 1010.2 hPa | 0 mm | - | 549 W/m² | - |
| 1777760186 | 33.89° C | 17% | 1010.3 hPa | 0 mm | - | 427 W/m² | - |
| 1777759884 | 33.89° C | 16% | 1010.6 hPa | 0 mm | - | 536 W/m² | - |
| 1777759580 | 33.33° C | 17% | 1010.7 hPa | 0 mm | - | 541 W/m² | - |
| 1777759276 | 33.33° C | 17% | 1010.4 hPa | 0 mm | - | 549 W/m² | - |
| 1777758974 | 33.33° C | 17% | 1010.7 hPa | 0 mm | - | 588 W/m² | - |
| 1777758670 | 32.78° C | 18% | 1010.6 hPa | 0 mm | - | 625 W/m² | - |
| 1777758367 | 33.33° C | 18% | 1010.6 hPa | 0 mm | - | 168 W/m² | - |
| 1777758064 | 34.44° C | 17% | 1010.8 hPa | 0 mm | - | 633 W/m² | - |
| 1777757761 | 34.44° C | 17% | 1011 hPa | 0 mm | - | 632 W/m² | - |
| 1777757459 | 33.89° C | 17% | 1011.3 hPa | 0 mm | - | 656 W/m² | - |
| 1777757158 | 32.78° C | 18% | 1011.5 hPa | 0 mm | - | 661 W/m² | - |
| 1777756855 | 32.22° C | 19% | 1011.1 hPa | 0 mm | - | 669 W/m² | - |
| 1777756550 | 33.33° C | 18% | 1011.5 hPa | 0 mm | - | 693 W/m² | - |
| 1777756248 | 33.89° C | 18% | 1011.3 hPa | 0 mm | - | 698 W/m² | - |
| 1777755945 | 32.78° C | 18% | 1011.6 hPa | 0 mm | - | 707 W/m² | - |
| 1777755642 | 32.22° C | 19% | 1011.6 hPa | 0 mm | - | 680 W/m² | - |
| 1777755338 | 32.22° C | 20% | 1011.4 hPa | 0 mm | - | 456 W/m² | - |
| 1777755036 | 32.22° C | 19% | 1011.7 hPa | 0 mm | - | 158 W/m² | - |
| 1777754732 | 32.22° C | 17% | 1012 hPa | 0 mm | - | 212 W/m² | - |
| 1777754430 | 33.89° C | 18% | 1011.7 hPa | 0 mm | - | 788 W/m² | - |
| 1777754127 | 32.78° C | 18% | 1011.9 hPa | 0 mm | - | 774 W/m² | - |
| 1777753824 | 32.78° C | 19% | 1011.9 hPa | 0 mm | - | 769 W/m² | - |
| 1777753520 | 32.22° C | 20% | 1012.3 hPa | 0 mm | - | 787 W/m² | - |
| 1777753219 | 32.22° C | 20% | 1012.1 hPa | 0 mm | - | 778 W/m² | - |
* Rain latest hour (hover to see other rain measurements)
** Current wind speed in m/s (hover to see current wind gust speed)